Other Surface Observations
Issued by NWS Charleston, SC

Home | Current Version | Previous Version | Text Only | Print | Product List | Glossary On
Versions: 1 2 3 4 5 6 7 8 9 10 11 12 13 14 15 16 17 18 19 20 21 22 23 24 25 26 27 28 29 30 31 32 33 34 35 36 37 38 39 40 41 42 43 44 45 46 47 48 49 50
000
SXUS52 KCHS 301410
OSOCHS

MARINE OBSERVATIONS
NATIONAL WEATHER SERVICE CHARLESTON SC
1000 AM EDT THU OCT 30 2014

...DOWNTOWN CHARLESTON AND HARBOR...

CITY           SKY/WX    TMP DP  RH WIND       PRES   REMARKS
WATERFRONT PRK   N/A     63 N/A N/A N14         N/A
FORT JOHNSON   NOT AVBL

...LAKE MOULTRIE...

CITY           SKY/WX    TMP DP  RH WIND       PRES   REMARKS
PINOPOLIS      NOT AVBL

...LAKE AND SUPPLEMENTAL COASTAL OBSERVATIONS...

STATION/POSITION TIME  TEMP    WIND        PRES    WAVE   SWELL
                       AIR SEA DIR/SP/G            HT/PER HT/PER/DIR
                 (UTC) (F)     (DEG/KT/KT) (MB)    (FT/S) (FT/S/D)
FORT PULASKI     1400   66     350/  5/  7 1015.7R
SAPELO ISLAND    NOT AVBL
UPR LAKE MARION  NOT AVBL
WINYAH BAY       1300   59      20/  5     1015.0S
LAKE MURRAY      1300   59      20/  3/  6 1017.3R
ACE BASIN NERRS  1300   61      10/  3     1015.0S


...C-MAN AND BUOY OBSERVATIONS...

STATION/POSITION TIME  TEMP    WIND        PRES    WAVE   SWELL
                       AIR SEA DIR/SP/G            HT/PER HT/PER/DIR
                 (UTC) (F)     (DEG/KT/KT) (MB)    (FT/S) (FT/S/D)
BUOY 41004       1400   69 77   10/ 14/ 16 1014.1R   3/ 4   2/ 9
BUOY 41008       1400   69 74  350/ 10/ 12 1015.2R   2/ 3
FOLLY BEACH CMAN 1400   62      10/ 12/ 14 1016.0R
CAPERS NS BUOY   1300   63      40/ 16/ 17   N/A
FRIPP NS BUOY    NOT AVBL
5E ST. MARYS GA  1400      76                N/A     2/ 3
FRYING PAN BUOY  1400   68 72   30/ 14/ 17 1014.9R   3/ 5
BUOY 41025       1400   67     360/ 17/ 21 1014.6R   4/ 6
CAPE LOOKOUT NC  1400   61      10/ 16/ 18 1015.2R
BUOY 41002       1336   76 77  250/  8/ 10 1014.9S   2/ 6   2/130/ 6
BUOY 41010       1400   78 81  330/  4/  6 1015.2S   3/ 7   3/110/ 7
BUOY 41012       NOT AVBL
ST AUGUSTINE FL  1400   71     340/  7/  8 1016.3R


$$



USA.gov is the U.S. government's official web portal to all federal, state and local government web resources and services.